GFSWCAN_850_thetae_024.txt.gz
Theta_e
301 301 300 301 301 301 300 301 301 300 301 301 301 301 301 301 301 301 302 303 303 303 303 303 303 303 303 304 305 305 307 306 305 310 313 311 311 311 317 321 325 327 329 329 327 328 327 329 333 330 330 340 339 340
301 301 301 301 301 301 301 301 301 301 301 301 301 301 300 300 301 301 302 302 302 303 304 303 303 304 304 304 304 305 307 307 307 307 307 311 314 314 316 322 323 327 327 330 328 333 326 335 338 344 345 346 346 346
301 301 301 302 302 303 303 303 303 303 302 302 301 301 301 300 301 302 302 302 302 303 303 302 303 303 304 304 305 304 304 306 307 308 306 309 311 316 319 322 325 325 327 329 329 331 330 327 330 337 341 343 345 346
302 302 303 303 303 304 303 303 304 304 304 304 303 303 302 301 301 301 301 300 301 302 302 303 303 304 305 304 305 305 306 306 306 307 304 305 309 314 318 319 324 325 326 329 330 329 329 326 327 334 334 339 341 341
302 302 302 303 303 303 303 303 303 304 304 304 304 304 304 303 302 301 300 303 303 304 304 304 303 307 307 309 306 306 306 306 306 306 307 310 312 314 318 320 325 323 327 328 332 327 325 325 327 330 329 330 334 337
302 302 302 302 302 302 302 303 304 304 305 305 305 304 303 302 303 301 303 305 305 304 303 305 304 306 310 311 311 309 306 306 306 307 309 311 312 315 317 322 320 321 324 325 328 325 325 325 325 325 327 328 326 329
302 302 302 301 301 301 302 303 304 304 305 306 306 305 306 305 305 304 303 304 303 303 303 305 305 305 310 312 312 311 311 308 308 309 312 312 313 315 319 321 320 323 328 325 326 327 326 325 324 325 326 327 328 330
302 302 301 301 301 301 302 304 304 305 308 308 307 307 307 308 307 307 308 307 304 303 304 306 306 307 311 312 312 311 310 311 310 310 311 314 314 317 320 319 322 324 325 326 326 326 326 325 325 326 327 328 328 328
302 301 301 300 301 302 303 305 305 309 309 308 309 310 309 308 308 309 309 308 306 304 305 305 308 310 310 311 312 313 313 314 312 314 314 313 317 320 321 320 321 322 322 322 324 324 324 323 324 325 327 327 326 328
301 300 300 301 301 303 304 305 305 311 309 309 310 310 310 310 309 309 307 306 304 304 301 302 303 308 308 313 314 313 314 315 315 312 312 314 317 316 318 319 321 321 321 320 321 320 321 321 320 320 321 324 324 324
300 300 300 301 302 304 305 305 306 312 311 310 310 310 310 310 309 309 307 303 303 304 301 301 304 307 310 314 312 314 314 311 312 314 315 314 317 317 317 318 319 320 319 320 318 317 319 319 322 322 322 321 320 320
302 301 301 302 302 304 305 306 309 312 312 311 311 311 312 313 313 313 311 304 303 308 310 311 311 310 312 315 313 313 311 311 318 316 314 314 315 315 316 316 318 319 320 320 321 322 322 321 323 322 320 322 324 326
308 306 304 303 304 305 305 306 310 313 313 313 313 313 313 313 313 316 314 313 316 314 314 316 318 313 314 312 313 316 317 320 317 313 311 312 314 317 317 317 319 320 320 321 321 322 323 323 323 324 324 325 325 325
309 309 306 305 306 306 308 310 312 314 314 315 314 309 312 314 315 315 317 317 317 316 318 318 318 318 315 318 319 320 316 316 317 316 320 320 319 318 318 319 319 319 320 321 321 321 321 322 323 323 324 324 324 323
310 309 307 307 307 308 312 313 313 314 315 314 312 308 312 314 315 317 318 317 316 316 318 319 318 317 316 317 315 316 316 314 313 315 318 318 318 319 319 319 319 318 319 320 319 319 318 320 319 322 323 323 322 321
310 309 308 308 306 311 312 313 313 314 314 313 314 314 314 315 316 318 317 317 316 316 317 317 316 317 317 314 315 315 315 316 318 317 317 318 316 317 319 319 318 318 318 315 317 318 315 315 315 316 319 321 320 320
310 309 309 310 308 311 312 313 314 314 312 314 315 316 316 317 317 316 315 315 316 316 316 315 318 319 316 318 319 315 316 316 316 317 318 318 318 318 317 317 317 316 312 314 313 312 311 312 313 315 314 317 316 315
309 310 312 313 311 312 312 313 313 313 314 315 315 317 316 315 315 315 314 313 314 315 316 316 316 316 318 316 317 316 317 317 317 317 317 318 317 316 314 314 315 312 311 311 311 311 310 310 310 310 310 311 312 313
312 313 313 313 314 314 314 313 314 314 315 315 315 316 316 316 316 314 314 313 311 311 312 313 313 313 313 313 315 316 315 313 313 315 315 314 315 315 315 313 310 309 309 309 308 308 307 307 308 308 308 309 309 310
314 314 314 314 313 314 314 313 314 314 314 315 315 315 315 315 314 314 314 313 313 311 310 310 311 310 308 306 308 312 312 309 312 312 312 314 314 314 314 311 310 309 308 307 307 307 306 306 306 307 307 308 309 309
314 315 316 317 317 314 314 315 315 315 316 316 316 316 316 315 314 314 314 313 313 313 313 310 309 308 307 306 307 309 308 308 308 308 309 310 310 312 311 308 307 306 306 306 305 305 305 305 306 307 307 307 307 306
314 316 317 318 318 317 316 317 317 317 317 317 317 316 317 317 316 314 312 311 311 312 312 312 311 310 307 305 305 305 305 305 304 306 307 309 309 308 307 305 305 305 305 304 304 304 305 305 305 306 306 305 305 305
313 315 318 319 318 318 318 318 318 318 317 317 317 317 317 316 314 313 313 312 312 310 310 309 309 307 307 304 304 304 303 304 303 304 306 306 304 304 304 303 304 303 303 302 302 302 302 302 303 303 302 303 301 303
314 315 317 318 320 318 320 320 319 319 319 318 316 315 315 316 315 314 311 311 310 310 309 309 308 307 306 303 302 301 302 302 302 303 304 304 302 301 301 300 300 300 300 301 299 299 299 300 299 300 300 299 299 300
317 317 319 318 317 317 320 319 319 318 317 318 317 315 313 314 315 314 311 310 310 310 309 307 307 304 303 302 302 300 300 300 300 300 299 299 299 298 298 299 298 298 298 298 298 298 297 297 297 297 297 298 297 297
314 319 320 319 318 316 316 319 318 319 318 318 317 314 314 314 312 311 309 310 310 310 309 308 307 302 302 301 300 299 298 299 298 297 296 297 297 297 296 296 296 297 297 296 297 297 296 295 295 296 296 296 295 294
313 316 316 318 316 316 318 319 319 316 315 316 317 316 314 314 312 310 310 310 310 309 309 308 304 301 300 299 299 298 298 298 296 296 295 295 296 296 295 295 295 295 295 295 295 295 294 295 295 294 294 294 294 294
317 317 319 321 320 319 319 316 315 313 313 314 315 313 312 311 309 310 310 309 308 309 307 302 301 300 299 299 298 297 297 297 296 295 294 293 294 294 294 294 294 294 295 295 294 294 294 294 294 294 293 293 293 292
319 318 318 319 321 319 318 316 315 313 312 314 313 310 311 310 310 309 308 305 304 303 302 301 300 299 299 298 298 297 296 296 296 295 293 292 293 293 293 293 294 294 294 294 294 294 293 293 293 293 293 292 292 292
321 320 319 320 318 317 317 316 314 313 311 309 309 310 310 310 311 310 306 304 303 302 301 301 300 299 298 298 297 296 295 295 295 294 292 292 292 292 292 292 293 293 293 293 293 293 293 292 292 292 292 292 292 292
319 320 321 320 319 317 316 315 314 314 313 312 312 312 312 312 311 310 306 304 303 302 301 300 299 299 298 297 297 296 296 295 294 293 292 292 291 292 292 292 292 292 292 292 292 292 292 292 292 292 292 292 292 292
317 317 317 320 319 317 316 315 314 315 314 313 313 313 313 312 311 309 305 305 303 302 300 299 299 298 297 297 296 296 296 295 294 293 293 293 292 292 292 292 291 292 292 292 292 292 292 292 292 292 292 292 292 292
317 318 317 319 320 319 319 319 318 316 316 316 315 314 313 312 308 306 304 303 303 301 300 299 299 298 298 297 296 295 295 295 294 294 293 293 293 293 292 292 292 291 291 291 292 292 292 292 292 292 292 292 292 292

GFSWCAN_850_thetae_027.txt.gz
Theta_e
301 302 302 303 303 303 303 303 303 303 303 303 302 301 301 300 300 301 302 301 302 303 302 302 302 303 302 302 303 303 303 304 302 306 308 310 310 311 311 314 317 320 323 321 319 324 324 330 332 338 334 336 336 334
302 303 303 303 303 303 303 303 302 303 303 303 304 304 303 302 301 301 301 302 302 302 303 303 303 303 303 303 303 303 303 303 305 304 306 307 310 311 311 316 315 319 321 323 323 325 326 328 330 328 330 335 340 337
303 303 303 303 302 302 301 301 302 302 304 304 304 304 305 304 303 302 301 301 301 301 302 302 303 303 302 303 303 303 303 303 304 305 307 308 311 310 313 314 314 317 320 323 327 329 329 331 329 330 331 334 339 344
303 303 302 302 302 301 301 301 301 303 305 304 304 305 305 305 304 303 303 301 300 301 302 303 303 303 304 303 303 303 304 305 305 306 306 306 309 308 311 313 315 317 320 322 327 328 328 329 326 328 329 333 339 342
302 302 302 302 301 301 300 301 302 304 305 305 305 305 306 305 305 304 303 303 301 301 303 304 304 306 305 305 306 305 303 303 304 305 307 308 307 308 307 309 317 319 321 324 327 326 326 326 324 326 328 329 333 336
302 302 302 301 301 301 300 301 303 305 305 307 308 308 306 305 305 304 303 303 303 303 303 305 304 306 306 307 309 310 307 303 304 305 307 307 307 308 312 311 313 317 320 324 325 326 326 325 324 326 328 327 328 330
302 302 301 301 301 300 301 302 304 305 306 310 309 308 307 306 306 305 305 305 304 304 302 304 305 304 308 312 312 310 306 305 305 306 308 308 308 309 307 316 315 316 321 326 325 326 325 326 325 325 328 328 330 330
300 300 300 300 300 301 301 303 305 305 308 311 309 309 309 309 307 306 308 307 304 302 302 305 305 306 311 311 311 311 309 309 310 309 310 311 312 313 314 316 321 321 324 326 326 325 325 324 325 326 328 329 329 328
301 300 300 301 301 301 302 304 306 306 311 312 310 310 310 309 308 308 308 307 306 303 302 303 307 310 308 311 312 310 311 312 310 312 314 312 312 311 316 320 320 322 323 323 325 325 324 325 326 326 328 328 328 329
306 305 303 302 302 302 303 305 306 308 312 312 310 309 310 309 310 308 307 305 302 303 300 301 302 307 307 311 313 312 312 313 314 313 311 311 316 315 317 318 317 320 321 322 322 320 321 321 322 323 322 324 326 327
308 309 308 306 304 303 304 306 306 310 313 312 312 310 311 311 310 309 306 302 301 302 300 301 301 305 308 311 311 312 312 310 311 313 314 313 313 317 317 318 319 319 319 319 319 320 321 321 323 323 322 322 321 322
309 310 310 308 306 305 306 307 310 312 312 312 312 311 312 312 312 313 312 306 304 308 308 307 307 306 309 312 312 310 309 309 315 314 314 313 310 314 317 319 319 320 321 322 322 322 323 322 321 321 324 325 324 324
310 310 310 308 306 306 308 310 312 312 314 314 313 313 310 312 316 316 314 318 318 315 314 315 317 313 312 311 312 315 317 317 313 312 311 315 315 318 318 319 320 321 321 320 320 321 323 323 322 323 324 325 325 325
310 310 308 307 307 309 312 312 313 313 315 314 312 311 313 314 316 316 317 318 316 316 315 318 317 317 315 316 317 318 315 314 315 314 318 319 318 318 318 318 318 319 320 321 320 322 322 323 323 323 322 322 323 323
310 309 308 308 307 311 312 312 312 312 314 313 313 311 313 314 314 314 313 315 315 315 316 317 316 315 313 314 314 315 316 314 313 317 318 317 318 317 317 315 313 312 312 313 314 316 318 321 321 320 320 322 323 321
309 309 310 308 310 311 312 312 313 313 313 313 315 315 315 314 314 313 311 312 314 315 316 316 315 316 317 316 317 316 314 316 318 317 317 318 318 315 311 310 310 310 311 312 312 312 314 316 315 315 316 316 317 317
310 311 311 311 312 313 312 313 313 314 314 315 315 315 315 314 313 313 311 311 314 314 315 315 317 317 314 315 317 316 318 317 316 316 318 315 317 316 315 311 310 311 311 311 310 309 309 310 311 311 311 312 313 315
312 313 313 311 312 313 313 313 314 315 315 315 315 314 314 313 312 312 310 309 310 311 314 315 313 312 313 316 315 314 314 313 312 313 314 313 311 311 310 309 309 308 308 308 308 308 308 308 308 309 310 310 311 312
312 313 313 313 313 313 313 313 314 315 315 315 314 314 313 313 313 312 310 309 308 308 309 308 308 309 309 308 308 307 307 308 309 309 311 314 313 310 308 307 306 306 306 306 306 306 307 307 307 308 309 309 311 311
314 316 316 314 313 313 313 314 314 315 315 315 315 314 312 311 312 312 312 311 310 309 307 306 309 306 305 304 304 304 305 307 309 309 308 307 307 308 306 306 305 305 305 305 305 305 306 307 307 307 306 307 307 308
314 315 316 316 316 315 315 315 315 316 316 316 315 315 314 312 311 311 310 310 310 310 310 308 304 303 303 303 303 304 304 306 308 307 305 305 305 305 305 304 304 304 304 304 304 304 306 306 305 305 305 305 305 306
314 316 317 318 318 317 316 317 317 317 317 317 317 316 316 315 313 312 311 311 310 310 309 308 304 303 303 302 302 302 302 305 306 305 305 305 305 304 303 303 303 303 303 302 303 303 302 301 301 302 303 304 304 303
313 315 317 318 318 318 317 318 318 318 316 316 315 315 315 315 314 311 311 310 310 309 308 307 305 302 302 302 302 301 301 302 303 302 301 301 301 301 302 301 301 301 301 300 300 301 300 300 300 300 300 302 303 302
313 316 318 318 319 319 319 319 319 318 318 317 313 313 312 315 313 312 308 310 310 309 307 305 304 303 302 301 299 299 299 300 300 302 301 300 300 298 298 298 298 298 298 298 297 297 297 296 297 298 298 298 299 298
317 318 319 318 316 316 317 316 317 315 316 315 314 312 311 313 314 309 307 309 309 309 309 306 304 302 301 299 299 298 298 298 298 298 297 298 298 298 297 297 297 296 296 296 296 296 295 296 296 296 295 295 295 295
311 316 319 318 317 315 314 316 316 316 314 316 314 313 314 310 310 309 308 310 310 309 308 308 304 302 301 299 298 297 297 297 296 296 295 295 295 295 295 295 295 295 295 296 295 295 295 295 294 294 294 294 293 293
312 315 316 318 317 315 317 317 316 313 312 314 313 313 311 312 310 309 309 309 310 309 307 305 304 301 300 299 298 297 297 296 295 294 294 294 294 294 294 294 294 294 295 295 294 294 294 294 294 293 293 293 292 292
316 317 317 319 319 319 317 314 312 311 311 312 312 311 311 310 307 308 308 306 304 307 304 301 300 299 299 298 297 296 296 296 295 294 293 293 293 293 293 293 294 294 294 293 294 294 293 293 293 293 292 292 292 292
318 318 317 318 319 320 318 315 313 312 311 313 311 308 309 309 308 307 308 308 302 302 301 300 299 299 298 298 297 296 296 295 295 293 292 292 292 292 292 293 293 293 293 293 293 293 293 292 292 292 292 292 292 291
320 319 318 319 317 315 317 316 314 313 310 310 310 310 309 309 308 310 309 304 303 303 301 300 299 299 298 297 297 296 295 295 294 293 292 291 291 292 292 291 292 292 292 292 292 292 292 292 292 292 292 292 292 292
320 320 319 320 318 318 317 316 314 314 312 311 311 311 311 310 310 310 305 304 304 302 302 301 299 298 298 297 297 296 295 294 294 294 293 292 292 292 292 291 291 292 292 292 292 292 292 292 292 292 292 292 292 292
320 319 319 317 317 316 315 315 314 313 313 312 312 312 312 312 311 309 304 303 303 303 302 300 299 299 298 297 296 295 295 295 294 294 293 293 293 293 292 292 291 291 292 292 292 292 292 292 292 292 292 292 292 292
317 317 317 319 316 315 316 315 314 315 314 313 313 313 313 312 310 307 305 303 303 302 301 300 299 298 297 297 296 295 295 295 294 294 293 293 293 293 293 292 292 292 291 291 292 292 292 292 292 292 292 291 292 292

GFSWCAN_850_thetae_030.txt.gz
Theta_e
302 302 302 303 302 302 302 301 301 301 301 302 304 304 304 305 304 302 301 301 302 302 302 302 302 302 302 302 302 302 301 302 302 305 305 305 308 308 308 308 310 310 312 312 312 317 317 324 328 335 330 331 332 332
302 302 302 303 302 302 301 301 300 300 301 303 304 305 305 305 305 305 303 303 301 302 302 302 301 301 301 302 302 302 303 302 304 304 305 305 307 308 307 310 310 312 314 316 313 314 316 323 329 330 329 331 332 331
302 302 302 302 302 302 301 301 300 300 301 304 305 306 305 305 305 305 306 303 303 302 300 301 303 303 303 302 302 302 302 302 302 303 303 305 309 308 307 309 312 311 312 315 318 319 322 325 328 328 330 331 333 333
302 302 302 302 302 301 301 301 300 300 302 305 306 305 307 307 306 305 305 305 304 302 300 301 303 303 304 303 303 303 302 303 303 304 305 306 307 307 307 308 309 309 309 312 315 318 326 327 326 330 329 335 332 338
301 301 302 301 301 301 300 300 300 301 303 306 306 306 308 308 307 306 305 304 304 303 301 302 303 305 304 305 303 303 302 302 302 304 306 308 307 307 307 307 308 307 309 311 314 317 324 325 325 329 329 330 330 336
300 299 300 299 299 300 300 301 301 302 304 306 308 310 309 308 307 306 304 303 303 303 302 304 304 306 305 305 305 304 303 302 302 303 305 306 306 305 308 310 310 310 310 313 316 317 322 325 326 328 328 329 331 334
303 302 302 302 302 301 301 302 302 303 305 308 312 311 309 308 307 305 304 305 304 303 302 303 305 305 306 310 308 306 305 303 303 303 305 305 305 307 305 309 309 309 308 312 317 320 325 326 325 327 328 331 332 333
307 308 308 308 307 305 303 303 303 305 307 312 312 310 310 310 308 306 306 306 305 303 301 304 305 305 308 310 310 309 305 303 304 305 308 309 308 307 307 307 308 311 308 311 319 322 325 325 326 326 327 329 331 331
309 309 309 310 310 308 306 304 305 306 312 312 312 310 310 309 308 307 306 305 304 303 300 302 306 307 307 310 311 311 310 312 310 311 312 310 308 308 310 314 318 316 311 313 324 325 324 325 326 327 328 328 328 328
309 309 310 310 310 308 306 305 307 312 312 313 312 310 310 310 309 307 306 303 303 302 301 300 302 306 306 310 313 312 311 313 312 312 311 310 310 312 315 316 317 321 322 322 321 322 323 323 323 325 327 328 329 329
310 310 310 310 309 306 306 309 312 312 313 313 313 311 311 310 309 309 305 303 300 301 300 301 301 305 307 310 312 311 311 308 310 312 313 311 312 314 317 316 321 321 321 321 321 322 322 322 323 322 322 323 324 326
310 310 310 308 306 306 311 312 312 313 313 313 313 311 312 312 312 312 311 306 305 308 305 306 306 305 308 310 310 310 307 307 313 312 312 312 317 316 318 319 321 322 322 321 320 322 322 324 325 325 325 325 324 323
310 309 308 307 306 310 311 312 312 313 313 313 312 312 313 314 314 315 314 315 318 316 315 314 316 313 311 311 311 314 317 316 313 311 310 316 317 316 313 316 317 320 322 322 323 322 322 322 324 325 325 325 325 325
309 308 308 307 308 311 312 312 312 313 314 313 312 309 313 315 314 315 314 313 314 315 315 317 316 316 315 313 313 317 315 313 315 313 317 315 313 312 311 311 311 313 318 319 318 319 319 322 323 323 323 323 323 323
310 309 309 309 311 312 313 313 313 314 314 314 314 310 312 313 312 311 310 311 312 314 316 316 314 314 313 315 314 313 315 313 312 318 315 313 311 309 312 313 312 312 311 310 316 316 318 317 316 316 320 321 321 321
310 309 311 312 312 312 313 314 314 314 315 315 314 312 313 311 310 310 309 308 310 314 316 315 314 314 315 316 316 317 313 314 317 316 315 315 309 308 307 307 307 308 310 312 311 311 311 313 315 315 316 316 317 318
310 311 311 312 313 313 313 314 314 315 315 314 313 313 312 311 310 310 308 307 310 312 313 313 314 315 314 314 313 312 314 312 311 309 311 310 307 307 308 308 308 307 307 307 308 309 310 310 311 312 313 312 314 314
312 312 311 311 312 313 314 314 314 314 314 313 313 312 312 310 310 310 309 307 308 309 310 310 309 309 311 311 309 307 306 307 307 307 309 307 306 305 306 306 306 306 307 307 307 307 308 309 310 310 310 310 311 310
314 314 313 312 312 313 313 314 314 314 314 313 311 312 311 310 309 309 309 307 306 307 308 307 306 307 307 305 305 303 305 306 306 304 305 305 305 305 305 305 305 306 306 306 306 306 306 306 307 308 308 308 308 308
313 316 316 315 313 312 313 314 314 314 314 315 311 311 310 310 310 310 309 309 308 306 305 304 305 304 303 302 302 303 305 307 306 304 304 304 304 304 304 305 304 305 305 305 306 306 306 306 305 305 305 306 306 306
313 315 316 317 316 315 315 315 315 315 315 315 314 313 311 312 311 310 310 309 309 309 307 304 302 301 301 301 302 302 303 305 304 304 303 302 303 303 303 303 304 303 303 302 302 302 302 302 304 304 304 304 304 304
312 314 316 317 317 317 316 317 317 317 316 316 316 315 315 313 312 311 310 310 310 309 308 304 301 301 301 301 301 301 302 302 302 302 302 302 302 302 301 300 301 300 299 299 299 299 299 299 300 301 303 302 302 301
313 315 317 318 318 317 317 318 317 317 314 315 314 313 314 314 313 310 309 309 309 307 305 302 301 301 301 300 300 299 299 299 300 300 299 299 299 299 299 298 298 298 297 297 296 296 296 297 298 301 301 300 300 299
314 316 318 318 317 317 317 318 318 318 317 315 311 312 311 314 313 310 306 309 309 309 305 303 302 301 300 300 299 298 298 298 297 298 298 297 297 297 297 297 297 296 296 296 295 295 296 296 297 297 297 296 296 295
318 318 319 317 316 315 314 314 315 313 313 313 313 311 310 312 311 307 306 308 309 309 308 306 304 303 300 299 298 297 297 296 296 296 297 297 296 296 296 296 296 296 296 295 295 294 295 295 294 294 294 294 293 293
308 316 318 316 315 314 313 314 314 314 312 314 312 312 312 308 309 308 306 309 309 309 307 306 305 303 300 298 298 297 296 295 295 295 294 294 294 294 294 294 294 295 295 294 294 294 294 294 293 293 293 293 292 292
311 314 316 318 317 315 315 315 314 310 311 313 311 311 309 310 309 307 308 307 306 305 304 304 303 301 299 298 298 297 296 295 294 293 293 293 293 293 293 293 293 294 294 294 294 294 293 293 293 293 292 292 292 291
316 316 315 318 319 318 315 312 310 309 309 311 311 310 310 309 306 307 305 305 304 303 303 302 300 299 298 298 297 296 296 295 294 292 292 292 292 292 292 292 293 293 293 293 293 293 293 293 292 292 292 292 291 291
317 317 317 317 318 319 318 313 311 312 310 312 310 307 309 308 308 307 306 308 308 303 302 301 301 299 298 297 297 296 295 295 294 293 292 291 291 291 291 291 292 292 293 293 292 292 292 292 292 292 292 292 292 291
319 318 317 317 316 314 316 316 314 313 310 311 311 310 310 309 308 307 308 308 305 303 302 302 300 299 298 297 297 296 295 294 294 293 292 292 292 292 291 291 292 292 292 292 292 292 292 292 292 292 292 292 292 293
319 319 319 318 318 318 317 316 314 313 311 311 311 311 311 310 310 309 309 308 305 303 302 302 300 299 298 297 297 296 295 294 294 293 293 292 292 292 292 291 291 292 292 292 292 292 292 292 292 292 292 292 292 292
319 319 319 317 317 316 316 315 314 313 312 311 312 312 311 311 311 311 310 309 305 303 302 301 300 299 298 297 296 295 295 294 294 294 293 293 293 292 292 292 291 291 291 292 292 292 292 292 292 292 292 291 291 292
315 316 316 317 315 314 314 314 313 313 313 312 312 312 312 312 311 310 308 307 304 302 301 301 300 299 298 297 296 295 295 295 294 294 293 293 293 293 292 292 292 292 291 291 291 291 291 291 291 291 291 291 291 292

GFSWCAN_850_thetae_033.txt.gz
Theta_e
301 301 302 302 302 302 302 301 301 301 300 300 300 302 305 305 305 304 305 305 302 301 301 302 302 302 302 302 303 303 303 304 305 306 306 306 308 308 311 308 308 310 313 312 312 312 312 316 318 321 332 332 332 333
301 301 302 302 302 302 301 301 301 300 300 300 301 304 307 306 306 306 305 305 304 303 302 302 302 303 302 302 302 302 303 303 304 307 306 306 309 309 310 310 310 312 311 314 313 311 313 315 319 320 327 328 330 334
301 301 301 301 301 301 300 299 299 300 300 301 303 307 307 307 308 307 306 306 303 302 302 302 303 302 303 302 302 302 302 303 302 303 305 306 307 307 309 310 311 310 312 314 314 312 315 313 314 318 328 329 333 334
299 299 299 300 300 300 301 301 301 301 302 303 305 307 308 308 308 308 306 306 305 303 301 303 302 303 303 303 302 302 302 303 302 302 303 306 309 307 309 309 311 310 311 312 313 313 313 313 314 318 323 327 329 335
304 305 305 305 305 305 305 305 304 303 303 304 307 308 310 308 308 308 307 306 305 304 303 303 304 304 304 304 304 303 302 303 303 304 306 308 306 307 307 308 308 309 311 312 312 312 314 315 316 320 327 327 331 334
308 308 307 308 308 309 309 308 306 304 304 307 310 311 310 309 308 307 305 304 305 304 304 304 304 304 304 304 304 304 302 303 303 303 304 304 304 306 309 311 309 308 309 309 312 310 311 314 317 321 325 331 333 335
308 309 309 309 309 309 310 309 305 304 307 311 311 311 309 310 309 307 306 306 306 303 303 304 304 305 305 306 305 303 302 302 302 302 302 304 305 306 305 308 308 308 308 309 310 311 312 312 317 325 325 330 333 331
310 310 310 309 309 310 309 306 305 308 311 312 312 310 310 310 308 307 307 306 305 303 302 304 305 306 307 310 311 307 304 301 302 302 303 305 305 303 305 307 307 308 311 308 308 308 311 314 324 325 327 329 330 333
311 310 310 310 310 308 306 306 310 311 313 313 312 309 310 310 308 307 306 305 304 304 302 303 307 309 306 309 311 310 306 307 305 305 308 309 305 307 308 310 311 317 312 309 309 310 313 319 324 326 326 328 330 333
311 310 310 309 307 306 307 311 312 312 313 312 312 310 310 309 308 307 305 304 304 302 301 301 302 307 305 309 311 311 311 310 310 309 310 306 306 311 314 321 321 317 316 318 317 322 322 320 324 327 324 323 325 326
310 310 308 307 306 308 311 312 312 313 313 313 313 311 311 309 309 309 305 304 301 302 301 302 302 304 307 309 311 309 310 306 310 312 310 308 309 311 312 313 319 321 322 322 320 322 323 324 324 326 326 327 327 326
310 309 308 307 307 311 312 312 313 313 313 313 313 313 311 312 312 313 313 309 307 311 307 306 308 305 308 309 311 311 311 310 316 313 312 311 312 311 311 313 315 315 317 318 319 322 323 322 324 324 323 325 325 326
311 309 308 308 310 312 313 313 313 314 313 313 313 314 314 312 312 313 313 314 315 315 315 315 317 313 313 312 313 315 317 316 314 312 310 311 312 311 311 312 314 314 314 316 315 316 319 322 323 323 324 323 323 323
310 309 310 311 312 313 313 313 313 314 314 314 313 311 314 313 312 311 312 312 312 312 313 315 316 315 314 315 315 317 315 313 316 314 312 310 311 309 307 309 312 313 315 315 316 316 317 320 320 319 320 320 319 319
308 309 312 312 313 313 313 313 313 312 314 314 313 313 314 312 311 310 309 310 310 311 315 315 316 315 316 317 315 313 316 314 312 315 315 313 310 306 305 306 308 308 312 314 314 313 314 317 319 318 317 317 317 317
308 311 312 312 313 313 313 312 312 314 314 313 312 313 311 311 310 309 309 309 309 314 316 315 315 316 316 314 314 313 313 313 313 311 308 308 304 305 305 307 307 309 310 310 311 312 313 311 310 312 315 316 316 317
310 309 311 312 313 313 313 312 313 313 313 313 312 311 310 311 310 309 308 308 309 311 314 313 311 313 312 312 311 308 308 307 307 306 304 303 304 305 306 306 306 306 307 308 309 310 310 310 310 311 311 312 314 315
314 310 310 310 312 312 314 313 313 313 313 312 312 310 309 309 309 309 308 306 307 309 309 310 308 308 309 308 308 308 305 305 306 305 303 304 304 305 305 306 306 306 306 306 306 306 306 306 307 308 308 308 309 309
314 315 314 312 312 313 314 314 314 314 313 311 310 310 309 310 309 309 308 306 305 305 307 306 306 306 306 305 305 305 304 304 304 304 303 303 304 305 305 305 305 305 305 305 305 305 305 305 305 305 306 306 306 306
313 315 316 316 314 312 313 314 314 314 315 312 310 311 310 310 309 310 309 307 307 306 306 306 305 305 304 303 302 301 302 302 303 305 303 302 302 302 303 303 303 304 303 303 302 302 303 304 304 304 305 305 305 304
312 314 315 316 316 315 315 315 315 315 314 314 313 312 311 313 311 309 309 308 308 308 306 304 303 301 301 301 301 301 300 301 301 301 301 301 301 301 301 300 299 299 299 298 298 298 298 300 302 302 302 302 300 298
312 312 316 317 317 316 317 317 316 316 315 315 315 315 315 314 312 311 308 308 308 308 307 302 301 300 300 300 300 299 299 299 299 299 299 299 299 299 298 298 298 298 297 296 296 297 298 300 300 300 299 297 298 297
313 315 317 318 318 317 317 318 317 317 317 316 314 315 315 316 312 309 310 309 309 306 305 302 301 301 300 299 298 298 297 297 297 298 297 297 297 297 297 297 296 296 296 296 296 297 298 298 298 297 297 296 296 295
314 317 318 318 315 316 316 317 317 317 317 317 315 315 315 315 313 311 311 309 309 308 307 304 301 301 300 299 298 298 297 296 296 296 296 296 296 296 296 296 296 296 295 295 295 296 296 295 295 295 295 295 294 294
317 317 318 316 315 316 317 317 317 317 318 317 316 315 314 312 314 311 310 309 309 308 307 307 305 303 300 299 298 297 296 296 295 295 295 295 295 295 295 295 295 295 295 295 295 295 294 294 294 294 294 293 293 293
311 316 317 317 316 318 317 318 318 317 315 317 316 313 312 312 312 311 309 309 308 305 305 305 304 303 302 299 297 296 296 295 295 294 294 293 293 294 294 294 294 295 294 294 294 294 294 294 293 293 293 293 292 292
314 316 316 318 317 316 316 315 314 312 314 315 315 314 313 311 310 309 307 305 304 304 303 303 301 300 299 298 297 296 296 295 294 293 292 293 292 292 292 293 293 293 293 293 293 294 294 293 293 292 292 292 292 292
316 316 319 318 318 318 318 315 313 312 312 312 312 312 311 309 308 305 304 305 306 307 304 302 301 300 299 298 297 296 295 295 294 292 292 292 292 292 291 291 292 292 293 293 293 293 293 293 292 292 292 292 293 293
317 317 316 318 318 319 319 316 314 312 310 312 313 312 311 308 308 306 306 306 307 306 303 302 301 300 299 298 297 296 295 294 294 294 293 293 293 292 291 291 292 292 292 292 292 292 292 292 292 292 292 293 293 294
319 318 318 317 318 319 316 316 314 314 312 310 311 310 311 311 310 309 308 307 308 306 303 302 301 300 298 297 296 296 295 294 294 293 293 293 292 292 292 291 291 292 292 292 292 292 292 292 292 293 293 293 293 294
319 318 318 318 319 318 317 317 315 314 312 311 311 311 311 311 311 311 310 309 309 306 303 302 300 299 298 297 297 296 295 295 294 294 293 293 293 292 292 292 292 291 292 292 292 292 292 292 293 293 293 292 292 292
319 320 320 320 319 317 316 315 314 313 312 311 311 311 311 311 311 311 312 310 308 304 302 301 300 299 298 297 296 295 295 295 294 294 293 293 293 293 292 292 292 292 292 292 292 292 292 292 292 292 292 292 292 292
315 317 317 317 317 316 314 314 313 314 313 313 313 312 312 313 313 311 309 307 306 302 301 300 300 299 298 297 296 295 295 294 294 294 293 293 293 293 293 292 292 292 292 292 292 292 292 292 292 292 292 292 291 292